Game Details

[ Leader Board ] [ Players ] [ Opponents ] [ Guilds ] [ Areas ]

Game Details for: Xerxes

Game Progress

Quest Completed on Day
Ackeron Savior 233
Artemis Shutdown 230
Solar Rejuvenator 229
Plasma Cube 222
Trader 8 216
Trader 9 193
Slayer 193
Arena 4 175
Xornium 164
Arena 5 162
Pulse Matrix 133
Trader 2 85
Data Cubes 83
Arena 2 74
Trader 4 67
Trader 3 50
Mountain Pass 49
Chaak Mine 39
Arena 1 27
Dave and Heidi 20
Mushroom Stew 12

Full Telemetry

Time Game Day Game Hour Game Minute Type Details Value Extra Zone X Y Credits Guild
11/6/2016 3:08:44 AM 233 12 28 GameOver SpaceStation 963 Win SpaceStation 5 37 51618 Psionic
11/6/2016 3:08:44 AM 233 12 28 Quest Ackeron Savior 963 SpaceStation 5 37 51618 Psionic
11/6/2016 2:48:44 AM 233 7 49 Combat Chaak Queen 0 Win SpaceStation 32 12 51618 Psionic
11/6/2016 2:40:58 AM 233 7 45 Combat Lv 4 Chaak Overlord 0 Win SpaceStation 30 18 50549 Psionic
11/6/2016 2:38:15 AM 233 7 45 Equip Alien Psi Kinetic Field 729 SpaceStation 30 18 49801 Psionic
11/6/2016 2:36:01 AM 233 7 45 Combat Lv 5 Chaak Elite 0 Win SpaceStation 30 18 49801 Psionic
11/6/2016 2:34:07 AM 233 7 45 Combat Lv 5 Chaak Elite 0 Win SpaceStation 30 18 49538 Psionic
11/6/2016 2:30:38 AM 233 7 41 Combat Lv 5 Chaak Elite 0 Win SpaceStation 30 21 49267 Psionic
11/6/2016 2:28:39 AM 233 7 37 Combat Lv 5 Chaak Elite 0 Win SpaceStation 29 28 48980 Psionic
11/6/2016 2:26:41 AM 233 7 29 Combat Lv 4 Chaak Elite 0 Win SpaceStation 25 30 48698 Psionic
11/6/2016 2:25:04 AM 233 7 27 Combat Lv 4 Chaak Elite 0 Win SpaceStation 31 31 48482 Psionic
11/6/2016 2:23:04 AM 233 7 22 Combat Lv 4 Chaak Elite 0 Win SpaceStation 31 36 48214 Psionic
11/6/2016 2:21:30 AM 233 7 19 Combat Lv 4 Chaak Elite 0 Win SpaceStation 21 37 47951 Psionic
11/6/2016 2:18:40 AM 233 7 11 Combat Lv 4 Chaak Elite 0 Win SpaceStation 12 36 47709 Psionic
11/6/2016 2:17:09 AM 233 7 6 Combat Lv 4 Chaak Elite 0 Win SpaceStation 7 33 47493 Psionic
11/6/2016 2:13:56 AM 233 6 15 Combat Lv 2 Chaak Elite 0 Win Wilderness6 19 16 47220 Psionic
11/6/2016 2:12:27 AM 233 6 13 Combat Lv 2 Chaak Overlord 0 Win Wilderness6 20 16 47010 Psionic
11/6/2016 2:10:36 AM 233 6 13 Combat Lv 3 Chaak Elite 0 Win Wilderness6 20 16 46342 Psionic
11/6/2016 2:07:29 AM 233 1 17 Combat Lv 2 Chaak Overlord 0 Win Wilderness6 15 26 46136 Psionic
11/6/2016 2:06:09 AM 233 1 17 Combat Lv 3 Chaak Elite 0 Win Wilderness6 15 26 45578 Psionic
11/6/2016 2:04:15 AM 233 1 17 Combat Lv 3 Chaak Elite 0 Win Wilderness6 15 26 45370 Psionic
11/6/2016 2:02:55 AM 233 1 17 Combat Lv 3 Chaak Elite 0 Win Wilderness6 15 26 45140 Psionic
11/6/2016 2:01:13 AM 233 1 17 Combat Lv 3 Chaak Elite 0 Win Wilderness6 15 26 44892 Psionic
11/6/2016 1:58:20 AM 233 0 0 Daily Xerxes 11338 Wilderness6 7 35 44648 Psionic
11/6/2016 1:57:57 AM 232 23 27 Combat Lv 2 Chaak Overlord 0 Win Wilderness6 12 38 44648 Psionic
11/6/2016 1:56:15 AM 232 23 27 Combat Lv 3 Chaak Elite 0 Win Wilderness6 12 38 44021 Psionic
11/6/2016 1:54:22 AM 232 23 27 Combat Lv 3 Chaak Elite 0 Win Wilderness6 12 38 43815 Psionic
11/6/2016 1:48:58 AM 232 10 19 Combat Lv 2 Chaak Overlord 0 Win Wilderness6 28 37 43815 Psionic
11/6/2016 1:47:51 AM 232 10 19 Combat Lv 3 Chaak Elite 0 Win Wilderness6 28 37 43083 Psionic
11/6/2016 1:44:27 AM 232 7 11 Combat Lv 2 Chaak Overlord 0 Win Wilderness6 39 33 42859 Psionic